Date,TemperatureHighF,TemperatureAvgF,TemperatureLowF,DewpointHighF,DewpointAvgF,DewpointLowF,HumidityHigh,HumidityAvg,HumidityLow,PressureMaxIn,PressureMinIn,WindSpeedMaxMPH,WindSpeedAvgMPH,GustSpeedMaxMPH,PrecipitationSumIn
2013-1-1,58.8,47.9,36.9,27.0,23.1,21.0,66,40,24,30.26,30.14,10,3,12,0.00
2013-1-2,60.6,49.4,41.1,22.0,19.0,16.0,41,31,18,30.17,30.03,12,3,16,0.00
2013-1-3,63.0,51.7,40.2,20.0,16.9,13.0,43,26,14,30.19,30.04,13,4,16,0.00
2013-1-4,63.1,50.2,39.8,25.0,17.6,11.0,51,29,19,30.30,30.19,7,2,11,0.00
2013-1-5,63.7,49.5,38.1,24.0,19.5,14.0,55,32,18,30.33,30.18,8,2,10,0.02
2013-1-6,66.5,51.7,38.6,36.0,27.3,18.0,61,41,18,30.18,29.97,11,2,14,0.00
2013-1-7,64.2,52.1,42.3,40.0,31.5,25.0,76,49,24,30.01,29.90,12,2,18,0.00
2013-1-8,72.8,55.8,41.6,32.0,24.4,19.0,48,32,15,30.07,29.92,12,2,15,0.00
2013-1-9,73.0,58.0,45.7,33.0,28.5,25.0,55,35,17,30.15,29.95,10,2,12,0.00
2013-1-10,65.5,55.1,48.3,48.0,32.5,24.0,56,43,28,29.97,29.81,20,5,33,0.00
2013-1-11,58.0,46.2,36.5,32.0,22.0,16.0,60,41,21,30.14,29.99,7,2,13,0.00
2013-1-12,55.6,44.2,34.6,26.0,19.7,13.0,65,41,19,30.14,30.01,11,2,14,0.00
2013-1-13,54.9,43.2,31.7,17.0,11.3,7.0,55,29,15,30.18,30.05,7,2,12,0.00
2013-1-14,48.7,42.0,35.9,15.0,4.6,1.0,31,22,14,30.34,30.12,18,6,24,0.00
2013-1-15,52.6,42.9,34.0,15.0,7.6,0.0,38,24,12,30.50,30.33,13,4,18,0.00
2013-1-16,62.4,48.6,34.8,26.0,19.6,14.0,46,33,21,30.40,30.22,10,3,14,0.00
2013-1-17,70.2,55.7,42.3,28.0,23.1,21.0,46,30,16,30.27,30.12,12,4,18,0.00
2013-1-18,72.1,59.4,46.6,26.0,22.1,19.0,38,24,16,30.20,30.09,10,3,13,0.00
2013-1-19,72.9,59.1,49.0,28.0,22.6,19.0,37,25,15,30.22,30.10,10,3,13,0.00
2013-1-20,73.7,59.3,46.7,25.0,20.3,17.0,39,23,13,30.15,30.01,10,3,14,0.00
2013-1-21,75.4,60.5,47.0,20.0,16.7,12.0,33,19,9,30.11,30.01,12,3,16,0.00
2013-1-22,78.5,60.8,47.8,28.0,18.3,10.0,30,20,10,30.13,30.03,10,3,15,0.00
2013-1-23,80.7,66.2,54.4,32.0,25.1,18.0,31,22,13,30.11,30.00,11,3,13,0.00
2013-1-24,72.7,65.7,59.3,49.0,43.9,31.0,66,46,27,30.18,30.07,8,2,11,0.00
2013-1-25,69.2,62.7,57.7,57.0,51.7,47.0,95,69,51,30.14,29.96,10,3,12,0.31
2013-1-26,65.6,60.1,57.5,59.0,57.4,56.0,97,91,76,29.96,29.88,9,2,10,0.10
2013-1-27,72.6,61.7,54.2,60.0,54.9,40.0,97,80,57,29.98,29.87,11,3,13,0.09
2013-1-28,61.3,52.3,43.5,41.0,36.5,30.0,82,57,33,30.10,29.96,13,3,19,0.00
2013-1-29,64.7,50.7,36.4,40.0,36.3,32.0,89,61,34,30.21,30.08,8,1,10,0.00
2013-1-30,67.0,51.5,39.4,43.0,38.6,32.0,90,65,27,30.35,30.20,9,1,9,0.00
2013-1-31,72.2,57.5,43.8,42.0,38.8,36.0,76,53,27,30.24,30.09,10,2,12,0.00
2013-2-1,79.4,55.9,45.4,45.0,36.8,24.0,79,53,17,30.21,27.43,6,1,8,0.01
2013-2-2,77.1,57.1,41.7,36.0,27.2,16.0,56,36,10,30.25,30.11,6,2,9,0.00
2013-2-3,72.8,60.1,52.4,39.0,32.0,24.0,56,36,23,30.15,29.96,5,2,9,0.00
2013-2-4,70.8,56.8,45.8,39.0,37.3,35.0,68,51,30,30.05,29.94,7,2,10,0.00
2013-2-5,73.9,57.7,43.8,42.0,39.1,36.0,75,53,27,30.04,29.91,9,2,14,0.00
2013-2-6,70.0,57.0,46.1,41.0,37.5,34.0,72,51,27,30.05,29.92,9,2,18,0.00
2013-2-7,72.4,55.7,41.4,39.0,32.4,26.0,76,46,18,30.11,29.96,6,2,10,0.00
2013-2-8,68.6,56.1,45.6,31.0,24.0,14.0,54,32,13,29.96,29.78,14,4,19,0.00
2013-2-9,51.9,44.0,34.8,37.0,28.4,22.0,93,57,33,30.02,29.80,12,3,18,0.09
2013-2-10,56.3,42.8,30.5,28.0,24.4,18.0,82,53,23,30.02,29.91,5,2,12,0.00
2013-2-11,51.0,38.9,30.7,35.0,24.9,22.0,87,59,39,30.02,29.94,12,3,18,0.04
2013-3-1,52.7,51.5,49.9,25.0,24.7,24.0,38,35,33,30.26,30.25,2,1,5,0.00
2013-3-2,84.0,69.8,43.2,30.0,22.7,15.0,44,20,8,30.30,30.12,13,3,15,0.00
2013-3-3,79.7,63.5,44.3,28.0,22.5,13.0,46,24,8,30.14,29.95,11,3,17,0.00
2013-3-4,71.5,64.3,48.1,34.0,24.6,13.0,51,24,13,30.09,29.90,20,5,23,0.00
2013-3-5,79.6,62.2,44.5,34.0,28.4,23.0,56,31,13,30.11,29.99,15,4,22,0.00
2013-3-6,77.0,60.3,53.4,34.0,30.7,25.0,45,34,17,30.06,29.91,8,2,9,0.00
2013-3-7,78.9,63.3,47.8,31.0,25.6,12.0,51,28,8,29.99,29.90,12,3,18,0.00
2013-3-8,66.7,57.2,45.6,44.0,36.4,27.0,71,47,31,29.97,29.78,18,6,32,0.00
2013-3-9,52.4,46.8,42.0,40.0,35.6,33.0,79,66,52,30.07,29.97,10,2,15,0.02
2013-3-10,63.6,52.3,39.7,39.0,35.7,27.0,85,57,26,30.15,30.06,13,3,20,0.00
2013-3-11,72.4,56.1,40.1,34.0,29.4,20.0,73,42,14,30.17,30.02,8,2,12,0.00
2013-3-12,82.2,61.2,42.2,37.0,29.3,23.0,57,35,12,30.11,30.00,6,2,11,0.00
2013-3-13,89.4,69.2,49.2,36.0,25.0,13.0,53,25,6,30.16,30.03,17,3,17,0.00
2013-3-14,92.6,72.9,52.5,33.0,19.2,-1.0,37,18,3,30.16,30.02,10,3,15,0.00
2013-3-15,94.7,73.4,53.1,28.0,18.3,0.0,30,16,3,30.08,29.93,15,4,21,0.00
2013-3-16,88.2,72.3,53.3,25.0,16.1,1.0,31,14,4,29.97,29.77,13,3,19,0.00
2013-3-17,82.5,67.6,53.4,24.0,18.9,15.0,23,16,9,29.95,29.84,21,4,25,0.00
2013-3-18,81.6,67.3,52.1,32.0,24.6,15.0,40,22,9,30.02,29.92,10,3,18,0.01
2013-3-19,78.5,66.7,52.6,35.0,27.8,23.0,38,25,15,30.07,29.96,12,3,17,0.00
2013-3-20,81.7,66.9,53.4,30.0,28.1,25.0,39,25,13,30.08,29.90,12,3,16,0.00
2013-3-21,79.1,67.4,55.9,34.0,30.6,28.0,35,26,17,29.91,29.76,13,2,19,0.00
2013-3-22,79.4,68.7,55.0,33.0,28.6,15.0,39,24,9,29.83,29.71,15,3,19,0.00
2013-3-23,80.1,66.4,50.5,36.0,23.2,6.0,43,23,7,32.49,29.84,5,1,8,0.01
2013-3-24,75.0,68.9,56.7,29.0,16.5,2.0,22,14,7,32.49,30.67,8,1,8,0.01
2013-3-25,77.7,61.9,44.9,23.0,18.5,13.0,39,21,9,31.25,31.05,6,1,7,0.00
2013-3-26,83.5,67.9,54.8,30.0,23.3,11.0,37,21,7,31.08,30.91,11,2,18,0.00
2013-3-27,81.8,71.1,60.4,36.0,31.5,27.0,36,24,15,31.09,30.97,11,3,18,0.00
2013-3-28,80.6,71.1,61.7,39.0,36.4,32.0,43,29,18,31.20,31.07,13,3,15,0.00
2013-3-29,85.9,72.1,54.7,37.0,33.7,30.0,47,26,15,31.30,31.15,10,2,12,0.00
2013-3-30,88.3,73.5,59.1,39.0,32.9,27.0,41,24,12,31.27,31.11,6,0,9,0.00
2013-3-31,84.8,68.3,53.8,39.0,28.2,20.0,28,23,15,31.16,26.34,0,0,0,0.00
2013-4-1,83.5,51.8,44.9,51.0,23.9,14.0,60,35,26,30.16,27.41,0,0,1,0.00
2013-4-14,-200.0,0.0,200.0,-99.9,-99.9,-99.9,0,0,100,29.98,29.96,0,-999,0,0.00
2013-4-15,-200.0,0.0,200.0,-99.9,-99.9,-99.9,0,0,100,30.02,29.96,0,-999,0,0.00
2013-5-23,-200.0,0.0,200.0,-99.9,-99.9,-99.9,0,0,100,30.57,30.50,0,-999,0,0.00
2013-5-24,-200.0,0.0,200.0,-99.9,-99.9,-99.9,0,0,100,30.64,30.51,0,-999,0,0.00
2013-5-25,-200.0,0.0,200.0,-99.9,-99.9,-99.9,0,0,100,30.61,30.49,0,-999,0,0.00
2013-5-26,-200.0,0.0,200.0,-99.9,-99.9,-99.9,0,0,100,30.56,30.15,0,-999,0,0.00
2013-6-5,-200.0,0.0,200.0,-99.9,-99.9,-99.9,0,0,100,30.35,30.25,0,-999,0,0.00
2013-6-6,-200.0,0.0,200.0,-99.9,-99.9,-99.9,0,0,100,30.33,30.17,0,-999,0,0.00
2013-6-7,-200.0,0.0,200.0,-99.9,-99.9,-99.9,0,0,100,30.30,30.16,0,-999,0,0.00
2013-6-8,-200.0,0.0,200.0,-99.9,-99.9,-99.9,0,0,100,30.38,30.27,0,-999,0,0.00
2013-6-27,-200.0,0.0,200.0,-99.9,-99.9,-99.9,0,0,100,30.38,30.30,0,-999,0,0.00
2013-6-28,-200.0,0.0,200.0,-99.9,-99.9,-99.9,0,0,100,30.47,30.19,0,-999,0,0.00
2013-6-29,-200.0,0.0,200.0,-99.9,-99.9,-99.9,0,0,100,30.30,0.00,0,-999,0,0.00
2013-6-30,76.7,6.6,73.8,51.0,-86.8,-99.9,41,4,40,30.33,29.40,0,-912,0,0.00
2013-8-7,80.5,48.4,72.1,38.0,-10.3,-99.9,28,17,22,31.53,31.46,0,-346,2,0.02
2013-8-8,87.6,76.1,69.0,63.0,49.3,36.0,64,40,26,32.48,31.31,6,0,6,0.01
2013-8-9,83.0,69.5,59.7,63.0,57.9,53.0,85,68,45,32.41,32.41,3,0,7,0.00
2013-8-10,84.3,70.4,60.0,66.0,61.0,57.0,90,73,49,32.41,32.41,4,0,6,0.00
2013-8-11,77.3,64.0,59.1,59.0,56.7,50.0,89,78,48,32.44,32.41,3,0,5,0.03
2013-8-12,66.0,59.4,53.7,58.0,54.9,51.0,93,85,73,32.44,32.44,10,2,11,0.00
2013-8-13,66.7,57.9,46.2,57.0,51.7,45.0,95,81,65,32.44,32.44,12,2,17,0.00
2013-8-14,77.0,61.1,51.0,60.0,55.3,49.0,95,83,50,32.44,32.44,5,0,10,0.01
2013-8-15,72.6,63.4,58.6,67.0,61.1,57.0,98,92,78,32.44,32.44,3,0,5,0.19
2013-8-16,71.2,61.9,54.1,61.0,58.0,53.0,97,88,70,32.44,32.44,2,0,5,0.00
2013-8-17,85.0,66.9,51.9,64.0,56.1,51.0,98,73,31,32.44,29.51,7,1,13,0.04
2013-8-18,89.3,67.2,42.6,54.0,47.9,40.0,90,56,24,29.75,29.64,10,1,13,0.00
2013-8-19,97.6,69.0,43.1,62.0,47.9,40.0,88,54,16,30.63,28.12,4,0,5,0.00
2013-8-20,76.2,68.6,63.7,58.0,51.1,45.0,66,54,39,30.44,30.23,5,1,8,0.02
2013-9-13,81.3,73.9,63.0,62.0,59.0,57.0,82,61,48,29.72,29.66,1,0,8,0.00
2013-9-14,88.2,68.9,60.8,63.0,59.7,57.0,92,75,37,29.78,29.70,2,0,6,0.18
2013-9-15,89.2,72.1,54.4,60.0,55.7,50.0,87,60,34,29.81,29.65,3,0,7,0.00
2013-9-16,69.6,65.2,60.3,57.0,55.9,55.0,84,72,63,29.75,29.67,5,1,11,0.00
2013-10-3,60.5,49.9,37.3,38.0,30.3,-99.9,86,54,32,30.53,30.29,8,-26,16,0.00
2013-10-4,60.8,42.6,28.9,37.0,30.5,27.0,93,67,30,30.78,30.54,2,0,7,0.00
2013-10-5,65.4,44.6,27.7,35.0,29.5,24.0,89,60,27,30.86,30.70,4,0,4,0.00
2013-10-6,66.3,40.1,31.6,42.0,30.7,27.0,88,71,42,30.74,29.73,3,0,4,0.01
2013-11-20,70.6,66.7,67.5,47.0,39.2,-99.9,47,39,32,27.45,27.33,0,-27,0,0.00
2013-11-21,70.8,67.3,62.6,39.0,34.3,28.0,38,30,23,27.74,26.14,0,0,1,0.01
2013-11-22,68.8,61.4,49.6,49.0,38.1,28.0,92,48,24,32.32,26.24,6,1,9,0.23
2013-11-23,57.8,52.6,48.8,50.0,48.0,47.0,94,85,73,32.38,30.06,10,3,11,0.23
2013-11-24,64.2,56.6,51.9,48.0,45.8,43.0,86,69,48,30.14,30.06,7,2,9,0.00
2013-11-25,68.8,56.2,45.4,46.0,42.1,37.0,90,63,33,30.20,30.11,9,2,15,0.00
2013-11-26,70.2,56.4,46.1,47.0,42.3,38.0,81,62,33,30.26,30.11,6,1,7,0.00
2013-11-27,70.4,57.7,49.2,46.0,42.5,38.0,85,60,33,30.14,29.93,5,1,9,0.00
2013-11-28,71.5,57.3,45.5,44.0,39.6,36.0,81,55,29,30.05,29.94,4,1,10,0.00
2013-11-29,76.9,59.4,46.9,51.0,43.7,39.0,79,58,36,30.72,29.31,7,1,8,0.01
2013-11-30,72.9,60.3,48.4,48.0,44.2,42.0,88,58,33,30.18,30.06,8,2,11,0.00
2013-12-1,74.1,60.0,49.0,46.0,43.2,41.0,85,57,31,30.22,30.11,9,2,13,0.00
2013-12-2,74.8,60.9,47.3,43.0,40.5,38.0,79,49,27,30.13,29.84,6,2,9,0.00
2013-12-3,77.5,63.8,48.5,58.0,46.6,38.0,81,57,30,29.84,29.62,14,4,23,0.00
2013-12-4,62.9,57.5,50.2,48.0,37.0,23.0,79,49,30,29.96,29.68,13,4,21,0.00
2013-12-5,58.7,49.7,42.7,29.0,23.5,20.0,47,36,23,30.10,29.95,13,3,13,0.00
2013-12-6,59.3,49.5,39.3,33.0,26.5,20.0,63,43,25,30.18,30.09,10,2,11,0.00
2013-12-7,62.8,52.2,40.1,39.0,33.2,30.0,75,51,31,30.09,29.94,11,2,19,0.00
2013-12-8,57.8,51.0,43.3,39.0,25.7,16.0,67,40,24,30.18,30.01,9,3,13,0.00
2013-12-9,52.7,45.5,35.9,18.0,12.4,8.0,41,27,17,30.39,30.18,15,4,25,0.00
2013-12-10,57.1,47.4,41.1,18.0,12.3,9.0,31,25,16,30.36,30.14,11,4,17,0.00
2013-12-11,62.7,52.0,43.7,24.0,18.2,14.0,38,27,19,30.23,30.14,9,3,15,0.00
2013-12-12,66.9,56.3,47.3,30.0,24.6,19.0,52,30,20,30.18,30.09,11,3,12,0.00
2013-12-13,68.8,53.6,41.5,40.0,34.2,31.0,74,50,27,30.18,30.08,4,0,6,0.00
2013-12-14,68.0,56.3,44.0,33.0,27.8,25.0,59,35,21,30.35,30.19,14,3,17,0.00
2013-12-15,70.7,58.4,47.1,32.0,28.4,26.0,47,33,19,30.32,30.17,13,3,15,0.00
2013-12-16,76.4,61.5,47.5,37.0,30.5,26.0,50,32,19,30.21,30.09,10,3,12,0.00
2013-12-17,77.8,64.5,53.0,37.0,32.6,29.0,45,31,20,30.18,30.02,8,4,11,0.00
2013-12-18,75.9,64.1,55.5,51.0,35.3,30.0,77,36,22,30.02,29.76,10,4,14,0.00
2013-12-19,70.2,57.8,47.1,49.0,43.9,40.0,86,62,40,29.76,29.64,9,2,15,0.07
2013-12-20,66.1,55.1,47.3,49.0,43.0,34.0,93,67,35,29.85,29.65,11,2,13,0.08
2013-12-21,66.3,54.6,45.7,49.0,43.7,40.0,88,69,41,30.03,29.83,8,2,10,0.00
2013-12-22,65.4,51.6,41.4,50.0,44.9,39.0,93,79,50,30.27,30.03,4,0,5,0.00
2013-12-23,70.0,54.5,44.4,47.0,39.8,31.0,93,63,26,30.38,30.23,8,2,11,0.00
2013-12-24,71.9,57.5,43.5,40.0,36.1,32.0,70,47,27,30.23,30.11,8,2,13,0.00
2013-12-25,71.7,60.0,46.7,39.0,30.6,23.0,67,36,19,30.28,30.14,13,3,17,0.00
2013-12-26,73.5,59.1,44.9,27.0,22.1,18.0,48,25,14,30.23,30.10,8,3,13,0.00
2013-12-27,74.0,57.1,41.1,30.0,25.0,18.0,59,32,13,30.20,30.06,9,2,12,0.00
2013-12-28,66.9,55.8,44.1,34.0,29.5,25.0,67,39,23,30.08,29.91,9,2,11,0.00
2013-12-29,68.8,56.9,42.3,34.0,26.1,20.0,70,34,16,30.15,29.96,14,3,22,0.00
2013-12-30,70.4,57.1,44.9,29.0,21.9,17.0,50,27,15,30.27,30.15,7,2,12,0.00
2013-12-31,69.4,53.4,40.2,33.0,27.9,23.0,62,40,19,30.21,30.07,9,3,11,0.00
2014-1-1,72.0,58.0,45.8,29.0,25.1,21.0,46,29,16,30.16,30.05,7,2,9,0.00
2014-1-2,75.5,59.0,45.1,36.0,30.9,27.0,59,37,19,30.14,30.00,9,3,12,0.00